Вернуться в каталог

ONEWEB-0640

АктивенСвязьPO
NORAD 55804·PAYLOAD·🇬🇧 United Kingdom

Запущен Mar 9, 2023 с Cape Canaveral Space Force Station

Loading…

Ближайшие Пролёты (ближайшие 24 часа)

TLE

СвежийSource: CelesTrak SupGP

Эпоха: Sep 14, 2026, 20:19 UTC

1 55804C 23029J   26257.84706435  .00000860  00000+0  23213-2 0  2570
2 55804  87.8885 271.8526 0002576  92.2358 303.4629 13.14499198    15

Отслеживайте ONEWEB-0640 в реальном времени с AllMySat

Download on the App Store